| time (UTC) | temp F | wind direction | speed MPH | gust MPH | rain 1hr in | rain 24hr in | rain mn in | humidity % | barometer mb |
| 20260903084550 | 52 | 0 | 0.0 | 0.0 | 0.00 | 0.11 | 0.00 | 94 | 1009.7 |
| 20260903083051 | 52 | 0 | 0.0 | 0.0 | 0.00 | 0.11 | 0.00 | 94 | 1009.8 |
| 20260903081550 | 52 | 0 | 0.0 | 1.0 | 0.00 | 0.11 | 0.00 | 94 | 1009.8 |
| 20260903080049 | 52 | 0 | 0.0 | 0.0 | 0.00 | 0.11 | 0.00 | 93 | 1009.9 |
| 20260903074552 | 52 | 0 | 0.0 | 1.0 | 0.00 | 0.11 | 0.00 | 93 | 1009.9 |
| 20260903073050 | 52 | 0 | 0.0 | 0.0 | 0.00 | 0.11 | 0.00 | 93 | 1009.9 |
| 20260903071553 | 52 | 0 | 0.0 | 0.0 | 0.00 | 0.11 | 0.00 | 93 | 1009.9 |
| 20260903070052 | 53 | 0 | 0.0 | 0.0 | 0.00 | 0.11 | 0.00 | 93 | 1009.8 |
| 20260903064549 | 53 | 0 | 0.0 | 0.0 | 0.00 | 0.11 | 0.11 | 92 | 1009.7 |
| 20260903063111 | 53 | 0 | 0.0 | 1.0 | 0.00 | 0.11 | 0.11 | 92 | 1009.7 |
| 20260903061553 | 53 | 0 | 0.0 | 0.0 | 0.00 | 0.11 | 0.11 | 92 | 1009.8 |
| 20260903060051 | 53 | 0 | 0.0 | 0.0 | 0.00 | 0.11 | 0.11 | 91 | 1009.8 |
| 20260903054548 | 53 | 0 | 0.0 | 0.0 | 0.00 | 0.11 | 0.11 | 91 | 1009.8 |
| 20260903053050 | 53 | 0 | 0.0 | 0.0 | 0.00 | 0.11 | 0.11 | 91 | 1009.8 |
| 20260903051550 | 53 | 0 | 0.0 | 1.0 | 0.00 | 0.11 | 0.11 | 90 | 1009.8 |
| 20260903050109 | 53 | 0 | 0.0 | 0.0 | 0.00 | 0.11 | 0.11 | 90 | 1009.7 |
| 20260903044551 | 54 | 0 | 0.0 | 0.0 | 0.00 | 0.11 | 0.11 | 90 | 1009.8 |
| 20260903043051 | 54 | 0 | 0.0 | 0.0 | 0.00 | 0.11 | 0.11 | 90 | 1009.7 |
| 20260903041553 | 54 | 0 | 0.0 | 1.0 | 0.00 | 0.11 | 0.11 | 89 | 1009.6 |
| 20260903040055 | 54 | 0 | 0.0 | 0.0 | 0.00 | 0.11 | 0.11 | 87 | 1009.5 |
| 20260903034552 | 55 | 0 | 0.0 | 1.0 | 0.00 | 0.11 | 0.11 | 85 | 1009.4 |
| 20260903033049 | 56 | 0 | 0.0 | 1.0 | 0.00 | 0.11 | 0.11 | 83 | 1009.2 |
| 20260903031548 | 57 | 0 | 0.0 | 0.0 | 0.00 | 0.11 | 0.11 | 81 | 1009.0 |
| 20260903030050 | 57 | 0 | 0.0 | 0.0 | 0.00 | 0.11 | 0.11 | 80 | 1008.8 |
| 20260903024548 | 59 | 0 | 0.0 | 2.0 | 0.00 | 0.11 | 0.11 | 77 | 1008.7 |
| 20260903023045 | 60 | 288 | 2.0 | 8.0 | 0.00 | 0.11 | 0.11 | 74 | 1008.7 |
| 20260903021550 | 61 | 301 | 1.0 | 5.0 | 0.00 | 0.11 | 0.11 | 73 | 1008.6 |
| 20260903020053 | 61 | 281 | 3.0 | 6.0 | 0.00 | 0.11 | 0.11 | 73 | 1008.3 |
| 20260903014553 | 61 | 271 | 4.0 | 7.0 | 0.00 | 0.11 | 0.11 | 73 | 1008.4 |
| 20260903013050 | 62 | 303 | 5.0 | 10.0 | 0.00 | 0.11 | 0.11 | 72 | 1008.3 |
| 20260903011600 | 62 | 279 | 1.0 | 5.0 | 0.00 | 0.11 | 0.11 | 73 | 1008.0 |
| 20260903010044 | 62 | 257 | 4.0 | 11.0 | 0.00 | 0.11 | 0.11 | 73 | 1008.3 |
| 20260903004604 | 62 | 285 | 4.0 | 9.0 | 0.00 | 0.11 | 0.11 | 73 | 1008.1 |
| 20260903003049 | 62 | 283 | 2.0 | 7.0 | 0.00 | 0.11 | 0.11 | 70 | 1008.1 |
| 20260903001543 | 63 | 281 | 6.0 | 9.0 | 0.00 | 0.11 | 0.11 | 68 | 1008.0 |
| 20260903000050 | 63 | 279 | 5.0 | 10.0 | 0.00 | 0.11 | 0.11 | 69 | 1007.8 |
| 20260902234551 | 62 | 281 | 3.0 | 10.0 | 0.00 | 0.11 | 0.11 | 78 | 1007.8 |
| 20260902233055 | 61 | 277 | 4.0 | 8.0 | 0.00 | 0.11 | 0.11 | 78 | 1007.7 |
| 20260902231603 | 61 | 304 | 2.0 | 7.0 | 0.00 | 0.11 | 0.11 | 81 | 1007.6 |
| 20260902230049 | 61 | 275 | 3.0 | 7.0 | 0.00 | 0.11 | 0.11 | 83 | 1007.3 |
| 20260902224554 | 59 | 280 | 1.0 | 5.0 | 0.00 | 0.11 | 0.11 | 86 | 1007.4 |
| 20260902223050 | 59 | 0 | 0.0 | 1.0 | 0.00 | 0.11 | 0.11 | 88 | 1007.1 |
| 20260902221551 | 58 | 0 | 0.0 | 3.0 | 0.00 | 0.11 | 0.11 | 87 | 1006.9 |
| 20260902220048 | 58 | 272 | 1.0 | 8.0 | 0.00 | 0.11 | 0.11 | 87 | 1006.9 |
| 20260902214550 | 58 | 302 | 6.0 | 12.0 | 0.00 | 0.11 | 0.11 | 84 | 1006.7 |
| 20260902213053 | 58 | 283 | 4.0 | 11.0 | 0.00 | 0.11 | 0.11 | 89 | 1006.8 |
| 20260902211553 | 58 | 280 | 3.0 | 10.0 | 0.01 | 0.11 | 0.11 | 91 | 1006.7 |
| 20260902210050 | 58 | 288 | 1.0 | 5.0 | 0.01 | 0.11 | 0.11 | 92 | 1006.4 |
| 20260902204551 | 59 | 309 | 0.0 | 1.0 | 0.01 | 0.11 | 0.11 | 92 | 1006.2 |
| 20260902203049 | 59 | 0 | 0.0 | 1.0 | 0.01 | 0.11 | 0.11 | 93 | 1006.0 |
| 20260902201552 | 59 | 0 | 0.0 | 1.0 | 0.00 | 0.10 | 0.10 | 93 | 1005.9 |
| 20260902200048 | 58 | 0 | 0.0 | 2.0 | 0.00 | 0.10 | 0.10 | 93 | 1005.9 |
| 20260902194549 | 58 | 42 | 0.0 | 3.0 | 0.00 | 0.09 | 0.09 | 93 | 1005.9 |
| 20260902193051 | 58 | 106 | 0.0 | 4.0 | 0.00 | 0.09 | 0.09 | 92 | 1005.9 |
| 20260902191549 | 57 | 119 | 0.0 | 3.0 | 0.00 | 0.09 | 0.09 | 93 | 1005.7 |
| 20260902190049 | 57 | 27 | 0.0 | 5.0 | 0.01 | 0.09 | 0.09 | 93 | 1005.7 |
| 20260902184558 | 56 | 46 | 1.0 | 4.0 | 0.02 | 0.09 | 0.09 | 93 | 1005.8 |
| 20260902183049 | 56 | 142 | 0.0 | 5.0 | 0.03 | 0.08 | 0.08 | 93 | 1005.8 |
| 20260902181548 | 56 | 88 | 1.0 | 4.0 | 0.03 | 0.08 | 0.08 | 92 | 1005.9 |
| 20260902174553 | 57 | 0 | 0.0 | 5.0 | 0.03 | 0.07 | 0.07 | 90 | 1006.1 |
| 20260902173050 | 57 | 101 | 1.0 | 8.0 | 0.02 | 0.04 | 0.04 | 90 | 1006.2 |
| 20260902171600 | 57 | 106 | 1.0 | 3.0 | 0.02 | 0.04 | 0.04 | 90 | 1006.4 |
| 20260902170051 | 57 | 58 | 0.0 | 4.0 | 0.02 | 0.03 | 0.03 | 91 | 1006.6 |
| 20260902164549 | 57 | 166 | 0.0 | 2.0 | 0.02 | 0.03 | 0.03 | 91 | 1006.7 |
| 20260902163051 | 57 | 75 | 0.0 | 2.0 | 0.01 | 0.02 | 0.02 | 91 | 1006.8 |
| 20260902161555 | 57 | 89 | 0.0 | 3.0 | 0.02 | 0.02 | 0.02 | 90 | 1006.8 |
| 20260902160055 | 57 | 0 | 0.0 | 0.0 | 0.01 | 0.01 | 0.01 | 89 | 1006.8 |
| 20260902154558 | 57 | 0 | 0.0 | 1.0 | 0.00 | 0.00 | 0.00 | 88 | 1006.7 |
| 20260902153054 | 57 | 0 | 0.0 | 0.0 | 0.00 | 0.00 | 0.00 | 88 | 1007.0 |
| 20260902151548 | 57 | 0 | 0.0 | 0.0 | 0.00 | 0.00 | 0.00 | 88 | 1007.1 |
| 20260902150048 | 57 | 0 | 0.0 | 1.0 | 0.00 | 0.00 | 0.00 | 88 | 1007.3 |
| 20260902144546 | 57 | 0 | 0.0 | 0.0 | 0.00 | 0.00 | 0.00 | 89 | 1007.4 |
| 20260902143049 | 57 | 0 | 0.0 | 0.0 | 0.00 | 0.00 | 0.00 | 88 | 1007.3 |
| 20260902141546 | 57 | 0 | 0.0 | 2.0 | 0.00 | 0.00 | 0.00 | 87 | 1007.6 |
| 20260902140042 | 58 | 0 | 0.0 | 2.0 | 0.00 | 0.00 | 0.00 | 86 | 1007.8 |
| 20260902134551 | 58 | 0 | 0.0 | 2.0 | 0.00 | 0.00 | 0.00 | 85 | 1008.0 |
| 20260902133048 | 58 | 0 | 0.0 | 1.0 | 0.00 | 0.00 | 0.00 | 84 | 1008.1 |
| 20260902131548 | 58 | 0 | 0.0 | 3.0 | 0.00 | 0.00 | 0.00 | 84 | 1008.0 |
| 20260902130058 | 58 | 0 | 0.0 | 4.0 | 0.00 | 0.00 | 0.00 | 84 | 1008.2 |
| 20260902124548 | 57 | 81 | 0.0 | 2.0 | 0.00 | 0.00 | 0.00 | 86 | 1008.3 |
| 20260902123056 | 56 | 0 | 0.0 | 0.0 | 0.00 | 0.00 | 0.00 | 89 | 1008.6 |
| 20260902121559 | 56 | 0 | 0.0 | 0.0 | 0.00 | 0.00 | 0.00 | 90 | 1008.8 |
| 20260902120047 | 56 | 0 | 0.0 | 0.0 | 0.00 | 0.00 | 0.00 | 90 | 1008.9 |
| 20260902114547 | 56 | 300 | 0.0 | 0.0 | 0.00 | 0.00 | 0.00 | 90 | 1009.3 |
| 20260902113103 | 56 | 0 | 0.0 | 0.0 | 0.00 | 0.00 | 0.00 | 90 | 1009.2 |
| 20260902111553 | 56 | 0 | 0.0 | 1.0 | 0.00 | 0.00 | 0.00 | 90 | 1009.7 |
| 20260902110051 | 56 | 0 | 0.0 | 0.0 | 0.00 | 0.00 | 0.00 | 89 | 1009.7 |
| 20260902104553 | 56 | 0 | 0.0 | 0.0 | 0.00 | 0.00 | 0.00 | 89 | 1009.8 |
| 20260902103051 | 57 | 0 | 0.0 | 0.0 | 0.00 | 0.00 | 0.00 | 89 | 1009.9 |
| 20260902101557 | 56 | 0 | 0.0 | 1.0 | 0.00 | 0.00 | 0.00 | 89 | 1010.1 |
| 20260902100104 | 57 | 0 | 0.0 | 0.0 | 0.00 | 0.00 | 0.00 | 89 | 1010.2 |
| 20260902094552 | 57 | 0 | 0.0 | 0.0 | 0.00 | 0.00 | 0.00 | 88 | 1010.3 |
| 20260902093051 | 57 | 0 | 0.0 | 1.0 | 0.00 | 0.00 | 0.00 | 88 | 1010.2 |
| 20260902091548 | 57 | 0 | 0.0 | 0.0 | 0.00 | 0.00 | 0.00 | 88 | 1010.5 |
| 20260902090158 | 57 | 0 | 0.0 | 0.0 | 0.00 | 0.00 | 0.00 | 88 | 1010.7 |